Location: *
(51.0333°S, 178.4667°E)
Time: 23:47:20
(UTC+00:00)

SL-16 R/B - Pass Details

Date: 15 November 2019
Orbit: 839 x 850 km, 71.0° (Epoch: 15 December)

Event Time Altitude Azimuth Distance (km) Brightness Sun altitude
Rises 09:08:29 0° 212° (SSW) 3,436 7.4 -12.0°
Reaches altitude 10° 09:10:58 10° 215° (SW) 2,494 6.2 -12.2°
Maximum altitude 09:16:36 62° 294° (WNW) 958 2.6 -12.7°
Enters shadow 09:21:14 15° 11° (N) 2,120 3.7 -13.2°
